Location: Atlantic Beach
(40.5890°N, 73.7290°W)
Time: 06:50:24
(UTC+00:00)

N. Korean satellite - Pass Details

Date: 26 January 2021
Orbit: 451 x 502 km, 97.2° (Epoch: 06 March)

Event Time Altitude Azimuth Distance (km) Brightness Sun altitude
Rises 22:42:41 0° 214° (SSW) 2,579 11.2 -7.3°
Reaches altitude 10° 22:46:05 10° 248° (WSW) 1,695 11.1 -8.0°
Maximum altitude 22:47:21 12° 269° (W) 1,601 10.6 -8.2°
Drops below altitude 10° 22:48:37 10° 289° (WNW) 1,692 10.2 -8.4°
Sets 22:52:01 0° 324° (NW) 2,568 10.5 -9.0°
